Weather History for KSNS - February, 2014

Change the Weather History Date:

Tuesday, February 25, 2014

  Actual Average Record
Temperature  
Mean Temperature 55 °F 54 °F  
Max Temperature 62 °F 63 °F 80 °F (1986)
Min Temperature 48 °F 44 °F 25 °F (1935)
Degree Days  
Heating Degree Days 10 11  
Month to date heating degree days 257 303  
Since 1 July heating degree days 1427 1781  
Cooling Degree Days 0 0  
Month to date cooling degree days 0 0  
Year to date cooling degree days 2 0  
Growing Degree Days 5 (Base 50)    
Moisture  
Dew Point 47 °F    
Average Humidity 75    
Maximum Humidity 93    
Minimum Humidity 56    
Precipitation  
Precipitation 0.00 in 0.09 in 0.84 in (2004)
Month to date precipitation 1.19 2.23  
Year to date precipitation 1.31 4.83  
Since 1 July precipitation 2.25  
Sea Level Pressure  
Sea Level Pressure 29.99 in    
Wind  
Wind Speed 8 mph (North)    
Max Wind Speed 22 mph    
Max Gust Speed 26 mph    
Visibility 7 miles    
Events      
T = Trace of Precipitation, MM = Missing Value Source: NWS Daily Summary

Daily Weather History Graph

Daily Weather History Graph

Search for Another Location

Airport or City:

Trip Planner

Search our weather history database for the weather conditions in past years. The results will help you decide how hot, cold, wet, or windy it might be!

Date:

Astronomy

Feb. 25, 2014 Rise Set
Actual Time 6:42 AM PST 5:57 PM PST
Civil Twilight 6:16 AM PST 6:23 PM PST
Nautical Twilight 5:46 AM PST 6:53 PM PST
Astronomical Twilight 5:16 AM PST 7:23 PM PST
Moon 3:37 AM PST (2/25) 2:12 PM PST (2/25)
Length of Visible Light 12h 07m
Length of Day
11h 14m
Waning Crescent, 17% of the Moon is Illuminated
Feb 25
Waning Crescent
Mar 1
New
Mar 8
First Quarter
Mar 16
Full
Mar 23
Last Quarter

Hourly Weather History & Observations

Time (PST) Temp. Dew Point Humidity Pressure Visibility Wind Dir Wind Speed Gust Speed Precip Events Conditions
12:53 AM 51.1 °F 46.9 °F 86% 30.03 in 5.0 mi Calm Calm - N/A   Overcast
1:53 AM 50.0 °F 46.9 °F 89% 30.02 in 5.0 mi East 3.5 mph - N/A   Overcast
2:53 AM 50.0 °F 46.0 °F 86% 30.01 in 5.0 mi East 4.6 mph - N/A   Overcast
3:41 AM 48.2 °F 46.4 °F 93% 29.97 in 3.0 mi ENE 4.6 mph - N/A   Overcast
3:53 AM 48.9 °F 46.0 °F 90% 29.99 in 4.0 mi ENE 3.5 mph - N/A   Overcast
4:53 AM 48.9 °F 46.0 °F 90% 29.99 in 5.0 mi NE 3.5 mph - N/A   Overcast
5:21 AM 48.2 °F 46.4 °F 93% 29.97 in 5.0 mi Calm Calm - N/A   Overcast
5:53 AM 48.9 °F 45.0 °F 86% 30.00 in 5.0 mi NNE 4.6 mph - N/A   Overcast
6:53 AM 48.9 °F 45.0 °F 86% 30.01 in 6.0 mi SE 4.6 mph - N/A   Overcast
7:29 AM 48.2 °F 46.4 °F 93% 29.99 in 3.0 mi Calm Calm - N/A   Overcast
7:53 AM 48.0 °F 45.0 °F 89% 30.02 in 3.0 mi East 5.8 mph - N/A   Overcast
8:53 AM 48.9 °F 45.0 °F 86% 30.03 in 4.0 mi East 3.5 mph - N/A   Overcast
9:53 AM 51.1 °F 46.0 °F 83% 30.03 in 5.0 mi ENE 3.5 mph - N/A   Haze
10:30 AM 53.6 °F 46.4 °F 77% 30.00 in 6.0 mi Calm Calm - N/A   Haze
10:53 AM 55.0 °F 45.0 °F 69% 30.02 in 7.0 mi Calm Calm - N/A   Clear
11:53 AM 60.1 °F 46.0 °F 60% 30.01 in 9.0 mi WNW 11.5 mph - N/A   Clear
12:53 PM 57.9 °F 46.0 °F 65% 29.99 in 7.0 mi West 9.2 mph - N/A   Clear
1:53 PM 61.0 °F 46.9 °F 60% 29.96 in 9.0 mi WNW 12.7 mph - N/A   Clear
2:53 PM 62.1 °F 46.9 °F 58% 29.95 in 10.0 mi WNW 13.8 mph - N/A   Clear
3:53 PM 60.1 °F 48.0 °F 64% 29.95 in 10.0 mi NW 17.3 mph - N/A   Clear
4:53 PM 59.0 °F 48.0 °F 67% 29.96 in 9.0 mi NNW 17.3 mph - N/A   Clear
5:53 PM 55.9 °F 48.0 °F 75% 29.97 in 10.0 mi NW 15.0 mph - N/A   Clear
6:27 PM 55.4 °F 48.2 °F 77% 29.95 in - NW 11.5 mph 20.7 mph N/A   Mostly Cloudy
6:53 PM 55.9 °F 48.0 °F 75% 29.98 in 10.0 mi NW 11.5 mph 19.6 mph N/A   Mostly Cloudy
7:04 PM 55.4 °F 48.2 °F 77% 29.95 in 10.0 mi NW 12.7 mph - N/A   Scattered Clouds
7:53 PM 55.9 °F 46.9 °F 72% 29.99 in 10.0 mi NW 9.2 mph - N/A   Clear
8:53 PM 55.0 °F 46.9 °F 74% 29.99 in - WNW 4.6 mph - N/A   Clear
9:53 PM 53.1 °F 46.9 °F 80% 29.98 in - ENE 8.1 mph - N/A   Clear
10:53 PM 52.0 °F 46.9 °F 83% 29.97 in - ESE 4.6 mph - N/A   Clear
11:53 PM - - N/A% 30.00 in - SSE 8.1 mph - N/A   Mostly Cloudy